Wind_Gust
20 23 25 25 25 24 22 24 26 31 31 28 29 27 26 28 28 25 28 20 31 27 28 28 26 26 24 27 21 23 22 20 17 19 20 18 28 28 27 22 19 18 19 19 19 19 16 14 18 23 23 20 14 13 18 18 18 17 17 16 15 12 10 12 13 12 11 12 10 7 6 7 4 8 5 5 6 7 7 6 10 9 10 9 8 8
23 24 24 22 22 23 22 22 24 27 26 26 27 28 28 25 27 25 27 20 31 17 22 24 24 24 23 26 24 26 22 25 21 21 21 20 22 22 25 28 23 20 18 19 16 16 15 16 19 23 20 16 18 17 17 18 18 17 14 14 16 14 11 11 11 12 9 8 8 7 8 7 6 9 7 8 8 7 9 7 7 7 9 8 8 7
25 27 23 23 22 21 20 19 23 23 21 19 25 26 23 27 27 21 27 26 23 20 20 24 27 27 26 24 24 25 28 23 22 21 21 20 21 22 23 27 22 20 20 20 18 15 15 15 20 23 18 16 18 20 20 18 19 17 16 14 15 14 13 12 11 8 8 8 7 5 5 4 8 7 7 10 9 9 11 6 8 7 5 7 9 8
24 25 24 24 22 23 20 12 12 17 17 18 22 23 21 19 21 26 16 18 15 15 16 20 21 23 25 26 21 25 24 23 21 22 22 21 24 22 25 30 26 24 22 23 20 20 19 17 19 22 19 17 20 20 18 18 18 16 17 16 16 15 14 12 8 6 6 8 6 6 5 11 10 12 10 8 6 8 8 8 8 8 5 6 6 6
24 22 25 24 27 24 17 14 15 16 19 21 24 24 24 22 23 21 22 21 17 19 11 19 25 26 23 24 23 28 27 21 22 21 23 23 23 19 23 26 23 21 22 21 17 20 15 17 22 22 18 18 21 21 20 18 17 16 18 18 17 17 15 12 8 9 11 11 10 6 13 10 9 7 5 5 7 6 6 8 6 7 6 8 7 6
25 18 12 29 22 14 17 21 22 19 23 23 24 25 25 24 22 23 18 13 14 20 21 23 31 29 18 22 27 24 26 21 20 20 23 22 21 22 29 23 22 28 25 22 22 22 16 16 21 21 18 18 21 21 17 18 18 15 19 19 18 16 14 12 11 12 14 9 12 10 10 8 6 5 4 5 5 5 7 10 6 7 7 8 5 9
24 13 17 16 14 16 20 23 19 21 24 23 26 26 29 31 26 24 18 18 18 22 19 25 27 22 25 29 28 26 23 24 22 21 22 23 23 23 25 23 25 26 20 17 19 15 16 18 23 21 15 14 18 18 22 22 20 19 19 18 15 15 13 12 16 13 13 13 15 9 5 3 3 4 4 4 3 5 7 5 5 7 4 8 7 7
26 19 15 19 19 19 20 24 22 23 25 29 16 22 27 29 26 23 21 17 21 21 15 15 25 25 23 29 28 26 23 24 22 21 20 22 20 23 28 22 24 25 15 19 22 21 17 18 21 25 18 14 17 18 21 20 23 22 18 16 18 15 12 11 13 8 15 13 12 11 6 7 7 3 5 4 5 5 6 5 6 5 5 8 7 7
19 18 15 18 19 24 26 21 18 22 29 26 22 24 25 25 24 23 20 18 18 11 21 23 23 28 26 19 23 25 28 25 25 24 23 24 23 27 18 24 23 31 29 30 22 20 19 20 21 25 20 19 17 19 18 19 21 20 18 20 17 16 10 11 10 9 12 11 13 11 8 5 4 8 5 5 4 4 4 6 5 4 8 7 7 8
19 20 18 18 19 23 20 22 23 23 27 24 24 24 20 21 24 23 22 23 21 17 22 17 18 29 25 17 14 22 25 26 25 25 26 26 21 28 29 25 24 27 24 26 22 17 26 31 25 17 21 15 14 18 20 22 20 21 18 18 20 16 11 9 9 11 10 8 9 10 5 5 6 6 5 5 4 5 4 5 6 6 5 7 5 6
11 15 20 26 26 25 22 23 27 25 23 20 22 23 21 22 24 25 25 24 16 20 23 19 22 26 26 18 22 25 27 19 20 24 24 24 22 22 24 24 24 23 20 18 18 27 31 28 23 16 10 16 15 14 24 24 20 21 21 15 18 17 14 12 12 12 10 7 6 7 6 7 6 5 5 6 5 5 5 5 6 6 5 5 8 7
21 11 15 17 22 27 21 20 21 18 22 20 17 21 20 20 18 20 23 18 21 22 19 22 22 23 30 18 20 22 17 20 19 20 23 19 28 30 23 21 21 18 14 15 28 30 28 25 21 20 12 18 22 23 27 28 25 23 20 20 21 18 16 13 12 13 12 10 8 7 7 7 6 7 7 8 7 7 7 6 7 6 6 7 7 6
26 23 17 19 20 25 19 21 19 22 20 22 20 23 19 21 21 26 24 25 24 21 20 23 23 24 30 11 12 15 14 19 18 14 16 20 23 27 23 20 22 17 13 19 25 23 24 24 21 23 23 21 20 24 26 30 27 27 28 26 26 21 19 19 17 17 14 10 8 9 9 7 7 7 7 7 7 7 7 7 7 7 8 8 7 7
22 20 21 21 21 24 21 24 22 23 24 22 23 23 22 22 20 18 20 17 22 23 20 14 17 23 12 16 14 15 14 17 15 20 20 21 20 21 22 19 20 19 18 19 21 21 22 22 25 21 23 22 23 21 29 33 31 27 29 28 27 22 25 23 20 19 16 13 11 10 10 9 9 7 7 6 8 7 6 6 6 8 8 8 8 7
19 26 28 23 27 24 28 27 20 15 24 28 21 25 19 19 26 17 20 20 19 17 16 18 20 17 21 14 19 15 14 14 15 24 23 16 16 18 20 18 16 18 21 22 21 18 18 21 23 20 19 21 23 18 16 16 17 17 22 24 25 23 23 20 22 19 17 16 14 12 12 12 8 8 7 7 6 6 6 5 7 7 7 9 8 8
24 24 18 27 18 25 26 26 27 22 18 25 25 22 22 21 16 20 10 15 9 12 11 10 16 11 17 15 13 8 9 12 13 12 16 17 17 19 24 21 20 25 29 25 21 22 16 16 20 19 20 22 23 21 17 18 19 21 21 24 24 24 21 20 20 17 16 14 12 13 11 12 9 9 8 6 6 5 4 6 6 7 7 8 8 8
22 28 16 29 26 22 24 23 26 22 20 12 24 27 22 13 18 16 13 13 6 13 18 11 16 21 22 16 15 11 9 10 10 15 14 15 16 12 15 23 26 27 28 27 24 22 19 13 14 17 17 19 16 16 14 14 15 17 18 18 18 16 15 17 17 17 15 14 13 13 12 10 10 9 8 7 7 7 5 5 5 6 7 9 8 8
15 16 12 20 29 25 21 21 23 22 21 20 23 18 16 19 18 20 17 6 19 20 19 15 17 18 18 20 22 20 17 16 9 17 27 24 16 14 18 24 26 25 21 26 29 27 25 21 20 17 13 17 20 16 15 16 15 16 18 19 19 18 18 16 15 16 14 13 13 13 10 8 10 10 8 8 9 7 7 6 6 7 8 9 9 8
17 21 19 25 22 23 18 19 24 25 23 25 14 18 23 14 18 16 12 14 15 17 20 21 19 24 24 17 25 23 20 19 20 21 22 18 16 12 15 24 22 20 24 25 23 25 23 22 22 18 18 16 12 11 12 17 18 16 18 19 20 21 16 14 14 14 13 12 11 13 12 11 10 10 8 8 8 8 8 8 8 8 9 9 8 9
16 20 22 18 19 21 24 22 23 21 20 20 17 21 16 16 14 12 18 16 16 15 13 15 20 11 24 16 11 17 21 21 18 15 17 17 20 16 14 20 25 23 27 29 25 25 21 20 20 19 17 18 15 18 14 13 17 17 18 18 18 18 17 16 13 12 12 13 13 14 13 10 11 11 11 9 10 9 9 9 8 8 8 9 9 9
12 9 15 16 21 22 29 29 24 22 21 25 23 23 20 21 11 15 13 19 17 15 14 15 19 20 17 20 14 21 25 24 19 18 20 25 19 22 15 16 18 22 25 24 24 24 24 22 22 22 19 21 18 17 17 16 17 16 18 19 21 19 19 17 15 13 12 12 13 12 10 11 8 9 11 11 10 9 9 8 9 8 7 9 7 9
20 17 14 15 21 19 21 19 20 23 23 21 23 24 23 17 17 16 19 17 21 20 18 13 10 14 14 14 21 19 20 24 25 22 23 25 23 22 24 19 17 12 18 22 23 21 22 24 23 22 22 21 21 18 18 17 17 17 17 20 20 19 19 19 18 17 18 14 14 15 14 12 12 11 10 11 11 9 10 8 8 7 8 7 7 9
12 12 19 16 24 22 18 19 17 22 28 28 21 24 25 21 20 26 20 17 18 21 11 15 7 8 9 12 16 18 18 18 17 18 23 25 22 23 26 22 21 23 23 24 23 22 21 19 20 24 23 23 23 20 19 17 17 17 17 19 19 19 18 17 18 17 17 17 16 15 15 15 15 14 12 13 12 11 13 10 9 10 9 9 9 9
5 15 14 22 19 22 21 18 20 22 20 19 23 20 16 25 21 22 21 15 15 11 21 17 19 13 13 10 13 17 17 19 18 17 17 19 19 21 20 21 22 22 22 21 18 18 24 22 19 22 24 23 20 18 16 13 13 16 16 15 16 17 18 17 17 16 16 16 16 17 16 16 15 15 13 14 12 11 12 12 11 11 10 10 9 12
17 19 19 13 19 19 17 18 23 20 20 22 22 17 20 17 18 16 13 14 16 15 15 10 14 10 13 10 18 19 17 19 19 17 16 17 18 19 19 19 22 23 23 20 22 20 19 19 18 18 18 19 18 15 13 14 15 15 13 11 14 13 13 17 14 12 16 15 14 13 14 11 11 11 12 10 10 10 11 11 12 11 13 9 9 9
13 8 16 20 21 18 19 18 10 20 24 28 24 24 22 22 19 9 8 11 17 14 16 12 9 11 16 16 21 21 19 16 15 16 15 16 16 20 19 19 21 22 22 20 20 19 18 20 20 16 17 17 13 12 11 11 9 16 17 16 11 16 14 13 12 12 14 14 15 14 13 11 11 9 8 6 7 10 11 10 9 10 8 9 10 7
10 9 12 17 16 14 11 11 9 16 25 25 21 23 26 26 21 20 15 9 16 9 12 16 18 19 16 19 20 21 21 15 13 13 12 16 13 17 18 20 22 22 21 21 19 20 19 17 18 16 14 17 14 14 14 16 16 16 14 17 15 13 12 15 14 15 14 14 14 14 13 12 11 13 12 9 11 22 21 8 5 8 9 8 8 8
14 15 15 14 17 14 13 13 8 13 19 25 23 23 29 31 25 18 17 21 11 12 10 10 19 22 19 19 18 20 18 16 14 12 14 13 18 18 20 22 18 21 20 20 20 19 18 21 19 15 14 15 15 14 18 17 17 17 15 15 14 14 10 11 10 15 18 14 13 13 14 12 12 11 14 12 10 12 18 19 8 6 6 4 5 6
16 14 12 11 17 18 16 14 11 12 15 22 23 17 22 30 32 28 13 18 16 11 12 12 16 22 19 19 19 19 17 13 17 14 13 15 18 18 20 22 22 22 23 22 20 20 20 19 18 16 14 16 15 14 15 15 14 11 14 14 12 12 12 12 11 10 9 12 9 11 11 12 12 13 13 14 14 14 14 11 6 8 7 3 4 8
14 13 13 16 16 17 16 16 13 14 15 20 22 16 16 16 18 26 24 18 11 12 18 22 20 21 20 20 20 18 16 14 15 14 15 17 18 18 22 24 25 25 24 23 23 23 22 21 19 17 15 14 15 14 13 12 12 13 13 13 13 12 11 10 10 12 11 12 12 10 13 16 11 13 14 14 14 13 13 13 10 6 5 8 7 7
20 9 12 14 14 15 14 12 11 13 16 22 21 14 15 19 17 18 21 25 18 20 21 22 24 23 18 16 19 20 21 25 25 25 23 18 16 17 22 26 25 25 24 24 23 23 23 21 19 19 18 16 17 17 18 10 14 13 14 13 13 13 11 14 10 11 11 13 15 10 9 10 11 14 13 12 10 9 10 9 10 11 10 8 5 4
15 13 16 16 10 10 12 9 11 10 9 14 19 21 16 14 12 16 13 13 13 20 21 19 18 18 18 20 23 24 25 27 28 27 25 21 21 23 24 26 28 27 28 28 29 29 30 30 30 28 25 21 17 18 16 12 15 13 15 11 13 14 12 8 9 10 11 12 11 11 12 9 10 9 12 11 11 11 11 10 11 9 9 9 8 6
16 11 13 13 14 10 12 12 11 10 10 14 16 22 18 11 9 10 15 17 12 12 18 12 17 20 21 19 23 23 25 27 27 23 23 27 26 27 29 29 28 28 28 29 30 30 30 29 28 30 29 29 31 27 26 23 19 17 12 13 11 13 15 14 11 11 12 9 10 10 9 9 9 9 8 8 12 11 10 11 11 10 11 10 8 7
18 16 17 14 14 8 13 11 9 12 16 13 12 13 12 18 10 11 14 14 15 10 10 18 24 22 19 20 23 21 23 24 24 24 23 22 23 22 24 25 26 26 26 26 26 26 25 26 27 27 26 28 30 30 29 30 30 15 17 19 16 16 16 13 12 11 11 12 11 11 11 11 10 10 8 7 7 7 7 7 7 8 7 11 10 8
9 9 11 11 10 11 9 8 12 18 16 13 10 12 12 17 18 18 13 14 13 21 22 25 22 20 21 24 24 23 22 21 21 22 21 20 21 22 22 23 25 26 25 24 23 22 21 21 23 24 26 26 26 25 28 29 32 30 23 14 12 13 10 12 14 12 10 10 10 10 10 12 11 11 9 6 7 6 6 8 10 10 8 8 9 8
9 8 11 10 9 10 11 14 15 12 9 8 11 9 16 16 17 18 14 10 10 12 16 22 23 25 26 25 24 22 23 21 20 19 17 18 19 17 18 19 20 21 21 20 18 17 17 18 20 21 21 22 24 25 26 25 26 29 27 28 28 16 15 16 15 15 15 15 15 14 13 13 8 6 5 5 5 5 4 5 11 12 15 13 14 14
10 12 5 9 7 15 13 16 15 14 12 10 9 12 10 10 10 8 10 13 12 16 20 24 24 25 25 24 23 22 20 20 21 17 14 15 14 14 18 18 17 16 14 12 13 13 13 14 14 14 16 17 18 18 19 22 23 25 26 28 30 28 21 20 21 20 16 16 16 15 15 13 12 10 9 9 5 5 3 3 3 4 9 10 14 16
17 10 8 9 6 7 14 12 10 11 16 10 15 13 7 7 10 10 17 12 16 21 21 21 22 22 23 24 23 23 19 21 18 16 15 16 18 17 16 16 16 16 16 13 9 8 8 7 7 10 11 11 11 13 13 13 15 19 21 19 20 25 25 23 22 20 18 17 17 16 16 15 15 14 12 11 11 10 9 7 4 4 4 6 6 8
10 20 18 13 9 11 8 16 16 11 9 11 12 15 17 19 9 8 9 12 17 24 19 22 22 21 22 24 24 22 16 19 20 20 19 19 20 18 18 17 19 17 16 13 10 11 10 7 7 10 10 8 5 4 6 7 6 10 10 12 14 16 18 17 14 18 18 16 16 17 16 13 12 12 12 12 12 12 11 8 7 7 7 6 7 8
9 8 10 14 14 13 12 17 12 11 10 7 10 10 13 16 18 12 12 17 14 18 22 22 22 22 22 20 19 14 11 19 23 23 22 20 18 17 17 18 20 19 17 14 11 7 9 7 8 8 8 8 7 6 9 8 9 9 8 9 10 10 10 9 10 13 14 15 15 14 14 12 10 9 11 12 12 12 11 10 11 10 8 7 10 12
10 10 9 14 14 13 12 14 18 11 9 11 13 12 11 13 10 11 11 17 10 15 18 18 18 15 16 18 14 18 19 21 23 22 20 19 17 16 15 13 15 15 15 13 12 8 10 9 10 10 10 10 10 9 8 10 10 10 10 10 9 11 14 14 15 14 14 15 16 17 16 14 12 12 12 11 12 12 12 11 12 11 10 8 9 11
8 10 10 8 11 13 9 11 12 15 8 17 12 9 12 10 7 9 14 8 15 20 22 27 28 26 23 23 22 22 24 25 23 21 18 16 15 14 15 14 13 14 13 13 11 12 11 10 10 11 11 11 12 12 12 12 10 9 10 10 11 13 14 15 16 17 16 16 16 16 16 15 15 13 13 13 13 12 12 11 12 13 13 12 11 11
14 10 12 15 15 12 7 12 12 10 9 13 10 8 18 11 11 11 15 14 16 18 15 19 24 24 23 25 22 21 20 19 18 17 16 15 14 13 13 13 12 13 13 11 11 15 14 12 13 13 11 12 12 12 12 11 11 11 12 12 12 13 14 16 16 17 17 17 17 16 16 16 15 15 15 13 12 13 13 13 13 12 13 14 13 13
16 10 10 11 14 13 14 14 12 14 10 13 14 15 15 17 15 16 15 20 20 16 16 17 17 17 19 20 20 19 18 17 17 16 15 14 13 12 12 12 12 12 12 12 14 14 13 12 13 11 10 12 12 12 11 12 11 12 12 12 14 14 14 15 15 16 17 16 17 17 18 18 17 17 15 15 15 16 16 15 15 15 16 15 15 16
20 15 14 14 19 16 15 15 13 11 13 13 15 17 17 16 18 20 20 17 18 20 19 20 19 18 14 16 16 16 17 15 15 14 14 14 13 11 11 11 10 9 9 10 12 12 11 11 9 10 11 12 11 10 11 11 10 11 11 10 11 13 13 13 13 13 14 15 16 17 19 19 19 19 18 17 17 18 18 15 15 18 16 17 19 18
12 13 11 18 22 21 21 17 16 16 15 17 18 23 24 23 22 22 22 23 19 17 14 15 12 10 9 11 14 13 14 13 13 13 13 13 13 12 10 11 11 9 9 9 10 11 9 9 9 10 11 11 11 13 12 14 14 14 15 15 15 16 16 17 16 16 17 17 16 17 18 18 19 19 20 19 20 19 19 19 18 20 19 20 20 20
12 11 10 13 14 9 11 11 15 17 15 14 15 19 22 21 21 20 21 20 18 19 20 15 15 12 11 11 13 13 13 12 13 12 11 12 12 11 11 11 10 10 10 10 12 10 8 8 10 12 11 11 12 12 12 12 13 14 14 14 15 16 17 17 18 18 18 18 20 19 20 19 19 19 19 19 20 20 20 20 21 21 20 21 22 20
14 15 8 11 8 8 17 16 15 14 13 13 13 13 15 17 18 18 18 17 17 17 15 14 10 11 9 12 11 13 13 12 11 10 10 11 10 11 11 10 9 9 10 10 9 6 9 12 11 11 10 10 11 12 12 13 14 15 16 16 17 18 18 18 18 20 20 21 21 21 22 21 13 18 21 19 17 20 21 22 21 22 21 20 21 22
13 17 14 12 16 19 17 16 17 15 14 14 15 14 14 14 15 16 16 16 16 17 15 15 12 11 11 11 10 11 13 12 12 10 10 11 11 11 10 9 8 8 9 10 10 10 11 11 11 9 10 10 11 10 11 12 14 16 16 17 17 17 18 18 17 18 19 20 20 21 19 20 22 22 22 21 22 21 20 19 20 22 21 19 13 11
18 21 15 7 12 10 12 16 16 12 13 16 14 15 16 16 16 16 15 15 14 14 15 13 12 12 11 10 10 10 11 13 12 10 10 11 11 9 8 9 8 8 9 9 9 9 10 9 9 9 10 10 10 10 13 14 15 16 17 18 18 18 17 17 17 16 17 18 18 18 19 20 20 21 23 24 24 23 23 15 16 16 20 24 15 8
18 16 16 16 11 13 15 15 8 11 18 15 16 15 14 15 15 13 13 13 15 15 10 12 16 15 14 11 9 10 11 11 11 11 10 11 10 8 7 8 9 8 10 6 7 9 10 9 8 8 9 9 10 12 15 15 16 17 17 18 18 17 16 15 15 16 16 16 16 16 18 20 20 21 22 24 25 24 24 25 24 18 21 19 19 24
Wind_Speed
8 9 10 11 11 12 13 15 14 18 19 15 16 14 13 12 14 15 17 11 19 15 15 15 16 15 13 16 11 14 11 9 10 8 10 9 17 14 15 12 10 10 11 12 10 11 6 7 11 12 9 8 8 7 9 8 9 3 1 9 8 4 3 5 5 6 5 5 4 3 3 3 2 4 2 2 3 3 3 2 5 5 4 3 3 4
10 10 11 13 14 15 14 14 14 17 17 14 15 16 13 14 12 14 14 12 17 6 12 15 14 14 13 13 14 14 14 16 12 10 10 11 12 13 16 16 14 11 9 12 8 7 6 8 12 11 8 9 11 9 9 9 11 9 3 4 8 5 3 5 5 5 4 3 4 4 3 3 3 4 2 4 4 4 3 3 4 4 3 4 4 3
10 12 12 14 13 13 12 10 12 13 14 11 11 13 11 11 12 13 13 14 12 10 7 14 14 12 13 13 14 13 16 11 12 10 10 11 11 11 13 15 14 12 12 10 10 4 8 8 13 10 8 9 11 11 10 11 11 9 9 6 8 5 5 5 5 4 2 2 3 2 2 2 3 3 4 5 4 4 4 3 3 2 2 3 4 4
10 11 15 14 13 13 13 8 8 11 10 7 9 10 9 9 9 10 6 7 6 4 6 9 10 10 13 14 13 12 13 13 13 13 14 11 10 11 11 17 14 13 12 12 8 12 11 9 12 10 8 10 11 10 9 10 11 8 6 7 8 7 6 5 3 3 2 4 3 2 3 7 5 6 5 4 3 4 3 3 3 2 2 2 1 2
11 12 15 14 16 15 11 5 7 4 7 10 12 11 10 10 9 8 8 8 10 9 4 7 8 9 10 13 9 10 15 12 13 13 13 12 11 9 12 14 14 10 13 7 10 12 7 11 12 12 9 10 11 10 10 8 6 4 10 10 9 8 7 5 3 3 3 6 6 3 7 5 5 5 3 3 3 2 3 3 2 2 2 3 2 3
14 11 4 15 14 9 6 9 10 9 8 9 13 15 15 15 14 11 11 8 4 5 9 8 8 10 10 13 10 11 13 12 10 11 12 12 11 11 18 13 13 17 13 13 14 10 9 9 13 12 9 11 11 11 9 10 8 6 8 10 9 7 6 6 6 5 7 5 4 5 6 5 4 3 1 1 2 2 2 3 2 2 2 2 1 4
10 8 9 10 9 8 11 11 11 12 10 10 10 15 18 20 17 16 5 6 6 7 4 9 10 6 8 12 13 14 11 11 11 11 11 12 11 12 13 14 14 12 9 9 9 6 10 9 13 7 8 9 11 11 13 12 11 11 10 9 8 8 6 5 5 7 8 5 5 5 3 1 1 2 0 2 1 3 5 3 3 3 1 2 3 3
10 11 8 8 6 8 8 10 11 12 11 11 10 13 16 19 17 15 13 8 6 8 8 8 9 9 8 13 16 17 13 13 13 12 11 11 11 13 9 13 14 9 9 9 9 8 7 7 12 8 4 8 10 12 12 10 10 10 10 9 10 7 6 4 5 5 6 7 5 2 1 2 3 2 3 2 3 3 4 3 3 1 2 2 2 4
9 8 8 10 11 9 11 10 11 13 11 9 14 14 15 14 15 14 10 7 6 5 8 9 13 9 9 8 10 12 16 14 13 13 12 10 6 17 8 10 12 9 9 9 5 2 7 13 13 11 6 5 9 11 10 9 9 8 11 10 10 8 6 6 6 4 6 7 3 2 2 1 2 5 3 3 2 2 2 3 3 1 2 3 3 3
8 10 10 10 8 9 10 12 13 13 12 13 15 15 11 12 13 13 8 8 8 5 6 8 6 8 9 7 5 11 14 14 12 12 13 12 10 18 15 12 13 9 8 7 5 9 17 15 10 8 12 5 6 10 11 10 8 8 9 10 12 10 7 4 4 4 5 4 1 2 3 3 4 4 3 3 3 3 2 2 2 3 3 3 2 3
5 8 12 11 10 11 11 12 14 14 13 11 13 13 8 9 10 10 8 10 6 6 9 10 10 10 9 8 8 8 10 9 10 11 11 14 11 14 16 16 15 12 11 7 10 14 15 14 15 10 6 6 6 8 11 10 8 7 7 7 7 10 8 5 3 5 5 2 2 3 2 5 4 3 3 3 3 3 1 2 2 2 2 2 4 3
12 2 5 4 9 10 13 10 12 12 14 12 5 8 7 9 8 8 9 8 4 7 8 13 13 13 10 7 8 9 8 11 9 10 14 10 14 10 11 12 12 11 8 10 16 15 14 12 14 13 8 11 11 11 9 9 8 7 7 10 10 11 10 8 7 7 6 4 4 2 4 4 4 3 3 3 3 3 2 2 2 2 3 3 3 3
13 11 9 9 10 15 9 8 6 6 7 10 9 9 7 5 4 6 7 7 8 6 8 13 14 10 14 1 6 7 4 5 10 2 9 12 13 11 10 11 11 8 6 12 14 12 12 15 12 15 15 14 12 13 13 13 11 10 10 13 15 13 12 11 10 10 8 6 4 4 5 4 4 3 3 3 3 2 3 2 2 3 3 3 3 2
9 10 12 11 11 11 11 9 7 10 10 10 10 8 8 7 7 6 8 5 7 10 12 6 3 9 5 3 2 8 4 10 7 8 9 11 13 13 12 11 11 9 8 12 12 12 13 12 12 11 13 14 14 14 16 18 17 13 13 13 15 15 13 13 12 11 9 7 6 6 6 5 5 3 4 3 3 2 2 2 2 2 3 4 3 2
6 11 12 12 9 12 13 12 9 7 10 11 9 10 8 7 6 5 7 6 7 6 4 7 6 3 6 3 6 9 9 6 8 13 12 10 10 12 12 11 10 11 11 8 8 11 11 13 15 10 7 7 9 11 9 8 8 9 10 10 11 10 11 13 13 11 11 8 7 6 6 7 5 4 4 3 3 2 2 2 3 2 4 5 3 3
13 9 8 15 10 13 15 14 14 11 7 11 10 10 8 5 6 8 1 4 3 4 3 2 2 5 4 5 4 3 5 7 7 6 10 10 10 11 10 9 11 14 11 6 7 9 7 10 11 11 10 9 8 9 10 11 10 10 10 13 15 15 13 12 12 10 10 8 7 6 7 7 5 6 4 3 3 2 2 3 2 3 4 4 4 3
8 9 8 15 15 13 14 13 13 10 6 3 8 10 9 6 7 3 3 4 3 2 4 4 4 7 7 4 4 5 3 6 6 7 5 9 8 6 9 11 16 13 9 5 8 9 1 3 8 10 11 10 9 6 4 7 7 9 11 11 12 11 10 11 11 10 8 8 7 8 6 6 5 6 5 4 4 3 2 2 2 3 4 5 4 4
6 5 4 7 17 13 13 12 12 12 7 7 7 7 8 11 6 3 4 1 4 6 5 6 6 1 6 3 9 7 6 5 5 11 14 8 7 8 11 14 15 15 11 10 11 10 6 4 11 8 5 11 12 10 7 8 7 6 5 7 10 10 10 9 9 8 7 8 8 8 7 5 7 5 5 5 4 4 3 2 3 3 5 4 4 3
5 7 5 14 12 12 11 10 13 14 14 10 6 9 6 1 6 5 1 4 2 4 4 8 10 11 10 5 11 11 10 8 13 12 10 9 5 6 10 15 14 14 14 10 11 10 10 8 9 9 10 7 5 5 6 4 3 4 5 6 6 9 8 8 7 7 6 5 5 6 6 5 6 6 5 5 5 4 3 3 3 3 4 4 4 4
4 5 4 9 11 10 10 8 8 8 11 12 6 7 6 7 3 3 1 4 5 4 3 5 11 2 5 6 5 10 12 11 8 9 6 6 5 4 7 11 13 14 12 14 13 14 11 9 9 11 10 10 9 7 7 5 6 8 8 10 10 9 9 8 7 7 7 6 5 6 6 6 6 7 6 5 6 5 4 4 3 3 4 4 3 4
3 4 3 4 11 10 9 8 10 8 7 9 8 8 6 3 4 5 3 7 6 4 4 2 3 6 6 10 6 13 15 11 4 8 6 4 3 4 9 9 5 9 13 12 12 14 12 11 12 10 11 10 10 8 7 1 3 6 8 10 11 11 11 9 8 8 7 6 6 6 6 5 4 5 6 6 6 5 5 4 4 3 3 3 3 4
4 5 3 4 8 7 9 8 10 11 10 9 7 9 9 8 8 6 5 5 6 4 4 3 1 3 6 5 6 10 10 14 14 11 9 8 4 4 9 11 7 7 8 13 14 13 14 15 14 13 12 10 11 9 10 9 6 5 6 9 8 9 9 9 9 8 9 6 7 7 5 5 4 4 5 6 5 5 4 4 4 4 4 3 3 4
3 1 6 5 7 9 11 8 9 9 13 15 10 8 11 9 5 4 6 2 5 7 4 2 1 2 1 5 4 8 10 11 11 12 13 15 12 9 11 8 6 5 11 12 11 12 12 12 12 12 13 12 11 11 10 10 9 9 9 9 8 8 8 9 8 9 8 7 7 9 8 7 6 5 6 7 6 5 6 4 4 4 3 3 3 3
2 2 4 6 8 11 11 9 10 13 12 10 11 8 7 10 10 8 7 8 6 3 3 2 3 3 5 3 7 9 11 11 9 7 9 12 12 12 13 13 8 10 9 11 11 10 11 10 11 12 15 13 9 10 9 7 8 7 7 5 7 8 9 9 8 8 7 8 8 8 8 7 6 6 5 7 5 5 5 4 4 3 4 3 4 4
3 3 7 3 2 4 6 5 11 11 9 7 7 6 10 8 4 3 5 5 3 3 4 2 1 3 4 3 8 6 6 11 11 10 8 9 10 10 11 12 6 9 11 12 11 11 11 10 10 10 10 11 9 9 7 8 7 5 5 5 4 3 4 7 7 5 5 9 7 8 7 5 6 6 5 6 4 5 5 5 4 3 3 3 4 4
1 2 5 6 6 7 5 6 1 3 9 9 12 14 12 12 11 2 2 4 5 4 8 3 2 4 8 8 11 7 8 9 7 10 7 5 8 10 9 11 7 9 11 12 11 11 10 9 7 6 7 7 7 6 5 6 5 10 9 5 2 9 8 8 7 3 7 6 6 8 7 7 6 5 4 4 3 3 4 2 1 4 3 4 4 3
2 2 4 5 6 2 2 2 2 5 7 10 12 12 15 16 14 6 6 3 3 2 3 5 2 9 8 11 11 9 8 9 8 7 7 5 7 4 7 8 10 11 11 11 12 8 8 10 8 3 3 6 5 3 3 3 3 5 9 11 8 6 7 7 7 6 7 5 3 1 6 6 6 8 7 4 4 6 6 1 4 3 4 3 4 3
3 2 7 7 7 6 7 6 0 4 6 11 14 13 14 18 17 10 4 5 4 5 3 3 6 8 9 11 10 9 7 7 7 2 7 3 2 3 8 12 14 12 12 12 12 12 11 13 10 8 6 6 3 3 6 5 7 3 3 5 8 6 4 5 3 8 10 7 8 5 2 6 3 7 8 5 6 4 8 6 5 4 4 2 2 4
6 4 6 6 9 10 9 6 6 5 4 7 14 11 13 13 17 18 8 7 8 3 2 7 7 13 10 10 10 10 9 7 9 8 4 7 8 6 9 14 14 14 14 14 12 12 13 12 10 8 6 9 9 6 9 6 6 4 5 3 6 3 4 4 6 5 5 8 5 7 6 5 6 5 6 6 4 5 2 1 3 1 3 1 3 4
3 4 6 8 8 9 8 7 6 7 7 7 8 10 10 10 11 12 15 13 4 3 12 13 13 12 11 11 11 10 8 9 8 8 7 8 9 6 10 15 16 16 15 15 14 14 14 13 10 9 8 8 9 8 7 3 4 6 6 7 6 5 4 3 1 4 4 6 6 6 7 6 3 5 6 7 7 6 5 5 2 2 1 3 4 3
6 0 6 4 6 7 7 6 4 4 7 10 9 7 5 11 10 12 12 16 12 9 13 15 16 12 8 10 11 13 12 14 14 14 13 11 10 10 14 17 15 16 15 15 15 15 15 13 12 11 10 9 8 7 5 4 6 6 7 6 6 7 6 8 3 2 4 7 6 4 5 6 4 4 5 4 5 4 4 4 4 4 1 1 1 1
4 1 3 5 3 3 4 3 3 4 2 6 9 11 8 7 7 8 5 6 5 5 12 12 10 7 9 12 14 14 15 16 17 16 13 11 12 14 15 15 16 17 18 18 18 18 19 19 20 19 17 15 10 9 6 5 7 7 8 6 7 7 6 5 4 4 5 6 5 6 6 5 6 5 4 5 5 5 5 4 4 5 4 3 1 1
7 3 3 4 4 3 6 5 4 5 2 4 5 7 10 5 5 3 8 9 3 2 2 2 6 9 10 10 13 14 15 15 15 13 13 15 16 15 15 16 16 17 17 17 18 18 18 18 17 17 18 17 17 16 17 15 11 9 7 7 4 7 7 7 4 4 5 4 5 4 3 3 4 5 5 5 4 3 4 4 5 5 4 4 3 2
6 5 4 6 4 0 6 5 4 3 4 0 3 8 4 10 6 6 7 6 9 3 1 8 12 11 11 12 13 13 14 13 12 13 12 11 11 12 14 15 15 15 15 14 15 15 15 14 13 13 15 15 16 16 15 16 17 9 9 10 9 9 9 7 6 4 4 4 3 3 4 5 5 5 4 2 3 3 3 4 2 3 2 4 3 2
4 3 1 4 2 0 2 3 2 5 2 3 5 6 7 11 11 11 8 7 8 13 12 13 12 10 13 13 13 14 13 11 11 11 10 10 12 12 13 13 13 14 14 14 14 13 13 13 14 15 16 15 14 14 15 17 15 17 13 9 7 7 4 7 8 6 6 6 5 5 5 6 7 6 3 2 4 3 2 5 6 5 3 5 5 5
3 2 1 2 0 2 2 3 3 1 4 3 6 5 10 9 9 10 9 6 6 5 9 12 14 15 15 15 13 11 13 12 12 11 10 11 11 10 11 11 11 12 13 11 11 10 10 11 12 11 11 11 13 13 15 14 14 13 12 14 16 10 8 9 9 8 9 9 9 8 8 6 3 2 1 2 2 2 1 4 7 7 7 5 3 3
2 5 0 1 1 2 2 4 1 6 6 4 4 6 4 4 2 1 2 5 7 10 12 14 14 14 14 13 12 10 10 10 11 9 8 9 9 9 11 11 10 10 9 8 8 8 8 9 9 8 9 9 9 10 9 10 11 12 12 14 12 15 12 13 13 12 10 10 10 9 8 7 7 5 5 5 2 0 0 1 2 3 5 6 8 8
7 1 2 1 1 1 1 3 2 1 4 4 9 7 2 3 6 4 8 6 9 11 12 12 13 12 13 12 10 10 8 10 8 6 7 9 9 10 10 9 10 9 9 7 5 5 4 4 4 3 5 5 6 7 5 6 6 7 10 10 11 12 13 13 11 12 11 9 9 9 8 8 8 8 7 6 6 6 6 4 3 2 0 2 3 4
4 11 6 4 2 2 2 1 2 2 2 4 6 9 11 11 5 4 2 4 6 11 11 13 12 12 12 12 12 9 7 8 7 6 7 9 8 8 9 9 9 8 7 6 6 7 6 2 3 4 4 3 2 1 3 3 2 6 6 6 7 7 7 8 8 10 10 9 9 9 9 7 6 6 6 7 7 7 7 5 5 4 3 3 2 3
1 1 2 4 3 2 3 3 2 2 2 3 5 5 6 8 12 5 3 4 8 11 12 12 13 13 12 11 10 6 5 8 9 9 10 11 11 10 10 10 12 11 9 7 5 4 5 4 5 5 4 5 4 3 4 5 6 6 6 6 6 6 5 6 5 5 5 6 7 8 8 6 5 5 5 5 5 5 5 5 5 5 5 3 2 3
3 2 2 3 3 3 4 2 5 3 3 6 6 5 6 6 5 1 2 5 3 9 9 9 8 5 9 10 5 5 6 9 12 13 12 11 10 9 8 8 9 9 9 7 6 5 4 5 5 6 5 5 5 5 5 5 5 5 5 5 5 6 8 8 8 9 8 7 8 8 8 7 6 6 5 5 5 5 5 5 6 6 6 4 4 4
3 3 3 3 2 4 2 3 4 4 2 7 6 3 6 4 1 3 0 2 9 12 15 17 14 13 14 12 9 10 12 14 12 11 10 9 9 9 8 8 8 8 7 7 7 6 4 3 6 6 5 5 6 6 6 7 5 4 6 5 6 8 7 8 8 8 7 8 8 8 8 8 7 7 6 6 6 5 5 4 5 5 6 5 4 4
5 3 4 4 3 3 2 1 4 2 1 7 6 2 10 2 3 2 2 8 10 11 9 12 14 14 13 13 13 11 10 12 11 10 10 9 8 8 8 7 7 6 6 5 6 8 5 4 6 5 5 5 6 6 6 6 6 6 6 5 7 7 7 7 7 7 8 8 9 8 8 7 8 7 6 6 6 7 6 5 5 6 6 7 7 7
8 3 2 3 4 3 5 5 4 3 4 7 7 5 6 8 7 8 7 10 11 8 9 9 10 10 11 12 11 11 11 11 10 9 8 8 7 6 7 6 6 6 6 6 8 8 7 6 6 5 6 6 6 6 6 6 5 6 6 6 6 5 5 6 6 7 7 6 7 8 9 9 9 8 7 7 7 7 7 7 7 7 6 6 6 6
10 6 5 5 8 4 5 5 6 4 6 7 8 9 8 10 11 12 12 9 9 9 10 10 11 11 9 10 10 9 9 8 9 8 8 7 6 6 6 5 5 5 5 6 6 7 6 6 5 5 6 6 6 5 4 4 4 5 5 5 5 7 7 7 7 7 7 7 8 7 8 8 8 9 9 9 8 8 8 8 7 7 6 6 7 7
6 6 4 7 9 12 11 9 8 8 8 10 11 12 12 11 11 12 12 11 9 9 8 8 7 6 5 6 7 6 7 7 7 7 7 7 7 6 5 6 5 5 5 5 6 5 4 4 4 6 5 5 7 7 7 7 8 8 8 8 7 7 8 8 8 8 9 9 8 8 10 9 9 8 8 9 8 9 8 8 8 8 7 7 7 7
6 4 3 4 5 1 5 6 8 9 7 7 8 12 13 12 11 11 11 11 10 10 11 9 8 6 6 5 7 7 7 6 7 6 6 6 5 5 6 6 5 5 5 6 5 2 2 4 5 7 6 6 6 5 5 6 6 6 7 7 8 8 8 9 8 8 8 9 9 9 9 10 8 7 8 8 8 8 8 8 7 8 8 8 8 8
5 8 1 5 2 1 8 8 8 7 6 6 5 5 8 9 10 10 10 10 10 9 9 8 6 6 4 6 6 7 6 5 5 4 5 5 5 5 5 4 4 4 5 4 3 1 5 6 6 5 4 4 5 5 5 5 6 7 8 8 9 9 9 9 8 9 10 10 9 8 9 9 11 11 7 7 8 7 7 7 8 9 8 7 7 7
4 9 4 5 6 8 9 9 9 9 8 8 8 7 6 7 8 10 9 10 10 10 9 9 7 6 5 5 5 6 6 6 5 4 4 5 5 4 4 3 3 3 4 5 5 5 5 5 4 4 4 4 4 4 4 6 7 8 8 9 9 9 10 9 9 9 10 10 9 9 8 9 9 8 9 10 9 9 9 9 9 8 9 9 4 4
6 9 6 2 5 3 4 7 9 4 5 7 8 8 8 7 7 8 8 8 8 8 8 7 7 7 6 5 4 4 6 6 5 4 4 5 4 3 3 2 2 4 5 4 4 5 5 4 3 3 4 3 4 4 6 7 7 7 7 8 9 9 9 8 8 8 8 7 7 8 8 8 9 10 10 10 9 10 10 12 12 9 10 10 13 8
7 7 6 6 3 5 7 7 1 4 9 6 8 9 9 9 8 7 7 7 8 6 4 7 9 8 7 6 4 5 5 5 5 5 4 4 3 2 1 2 3 2 4 2 3 5 4 3 3 3 3 3 4 5 6 6 6 7 8 8 8 8 8 8 7 7 6 7 7 7 7 8 9 9 10 10 10 11 11 10 12 16 17 16 16 15
Wind_Direction
183 214 214 215 226 223 222 235 236 232 247 271 305 273 222 227 242 232 239 212 176 190 195 222 213 211 230 237 215 175 166 235 243 188 224 217 143 150 157 157 162 173 175 167 185 150 141 150 123 135 151 155 131 148 154 144 109 82 185 122 111 105 125 133 117 118 120 131 130 132 133 105 135 104 113 88 74 77 57 101 128 120 114 112 120 133
215 218 226 225 223 237 220 220 244 255 259 275 292 299 252 211 240 234 221 216 163 209 191 205 223 216 217 221 238 170 192 201 220 211 223 223 194 189 158 162 165 169 167 167 161 117 194 164 132 135 151 138 138 158 147 131 114 148 132 78 103 104 107 91 80 90 115 119 144 141 134 151 133 113 146 95 82 71 80 71 69 79 104 129 121 114
212 227 229 233 234 238 250 223 232 254 264 267 262 270 272 216 222 248 221 226 163 178 240 185 213 233 226 222 226 214 177 190 197 211 223 225 210 215 162 164 165 165 166 148 65 89 250 187 134 136 156 135 129 145 147 132 135 140 129 148 104 131 101 82 69 56 25 6 79 33 101 131 134 102 93 100 110 128 105 74 90 98 130 127 131 143
213 222 234 235 231 231 238 251 247 237 238 265 254 250 276 280 219 216 226 186 130 157 227 231 214 209 235 234 220 239 226 175 187 201 222 225 218 219 160 161 158 167 161 106 149 203 208 172 138 141 143 121 128 140 146 144 137 128 127 118 114 98 98 102 66 52 21 28 14 30 4 37 52 80 70 91 90 84 138 137 102 67 7 54 92 145
218 229 206 226 231 221 223 212 261 258 246 234 254 251 259 265 239 243 110 170 121 164 229 272 259 258 226 233 206 215 246 195 176 200 220 226 209 226 147 156 160 130 86 121 201 218 178 165 147 141 137 118 131 140 142 117 81 120 128 118 115 112 105 91 73 48 40 36 14 43 62 51 59 61 75 90 121 136 85 101 104 112 143 99 49 56
234 244 257 210 224 207 202 226 225 243 252 246 236 250 262 268 278 230 186 191 205 213 168 201 249 244 233 233 224 217 232 190 177 206 213 224 205 125 123 137 109 100 152 179 208 193 167 164 129 133 125 126 134 134 99 88 118 140 113 122 110 104 102 92 87 86 79 61 22 42 58 52 37 53 58 130 93 116 181 100 103 138 79 68 115 73
249 230 222 239 187 162 216 230 228 217 245 245 226 226 246 260 274 283 197 139 198 235 215 195 239 234 219 236 224 234 210 189 207 215 215 219 214 142 133 133 105 125 149 207 229 148 168 168 116 91 114 116 132 115 111 135 147 130 131 123 108 103 99 111 133 133 105 93 47 15 65 75 118 166 279 73 54 71 75 79 74 73 69 113 69 82
229 235 223 230 191 212 223 227 224 216 224 237 255 212 219 242 256 264 269 209 241 221 202 208 211 254 235 214 219 214 216 196 204 204 207 222 212 119 133 122 114 135 170 202 220 186 159 140 100 106 70 102 121 119 120 129 126 124 133 121 109 102 106 140 138 102 128 99 63 336 290 195 219 141 100 83 60 66 66 71 115 140 158 130 155 163
209 213 187 225 223 230 232 230 225 214 224 241 234 236 214 231 230 247 259 232 227 237 237 200 215 233 248 260 209 203 213 208 199 204 201 216 219 110 113 115 122 157 185 213 211 176 93 69 109 140 125 104 110 114 115 121 120 116 114 116 117 116 134 163 124 133 98 98 105 258 242 264 92 101 90 87 96 81 95 134 216 177 96 60 35 36
192 242 185 210 220 227 234 227 230 213 226 232 256 283 279 198 228 233 231 246 228 216 236 237 221 254 238 227 213 203 222 204 198 210 204 201 181 137 139 152 149 160 199 219 214 70 78 81 93 123 133 117 101 108 112 117 125 126 127 137 132 131 137 121 102 102 95 82 107 227 247 135 126 110 124 135 112 113 184 179 72 70 68 93 75 32
251 206 232 211 214 231 223 228 222 213 228 236 224 241 246 244 218 224 238 235 239 234 234 235 185 231 255 234 198 207 218 205 193 210 202 200 137 132 140 160 144 156 175 187 84 91 98 115 110 92 61 100 91 113 130 136 142 145 143 144 130 133 123 119 145 140 137 164 202 210 183 140 126 123 128 110 134 157 177 118 138 138 140 102 77 76
233 182 295 248 225 232 238 242 234 219 199 223 233 242 233 234 225 221 217 222 223 244 237 236 229 207 250 233 209 212 196 194 205 205 201 166 120 148 149 135 146 148 158 100 106 99 106 104 104 112 153 171 152 138 143 142 147 154 155 148 137 134 139 154 168 154 172 195 182 204 156 135 129 142 133 146 173 175 159 153 177 122 105 91 95 70
234 222 203 227 238 246 219 259 185 228 238 220 203 225 236 223 215 221 208 222 222 237 218 235 231 219 229 256 63 5 95 183 209 143 87 118 138 145 157 137 125 138 130 92 107 117 118 122 124 145 163 160 153 153 156 153 154 166 165 161 149 154 156 167 169 171 183 181 167 176 148 138 139 152 152 168 172 200 152 175 133 132 119 123 115 107
222 242 213 211 224 219 256 218 210 198 213 233 228 216 222 217 213 227 218 228 234 217 228 234 331 272 79 74 203 164 82 8 117 150 168 143 129 142 134 124 138 138 121 111 124 130 139 142 157 171 165 162 161 169 165 163 163 167 168 169 158 161 166 169 168 174 175 178 173 158 151 147 143 162 162 170 178 186 144 185 133 153 138 127 102 116
218 202 224 208 210 185 219 237 229 213 183 219 233 232 220 227 205 234 224 224 230 246 229 206 193 187 189 71 105 97 92 71 56 72 74 131 130 130 139 137 132 106 84 106 122 125 129 139 152 154 142 173 146 157 153 158 155 151 166 169 158 157 171 169 172 170 170 167 174 160 150 146 152 156 160 173 161 165 157 133 175 159 123 116 134 121
227 237 204 195 226 181 208 225 251 265 234 196 217 232 232 220 182 250 210 288 54 307 232 264 233 52 96 200 79 81 95 98 102 82 102 100 143 141 132 139 100 93 114 128 125 114 130 130 131 136 148 148 146 158 156 156 161 161 172 174 170 169 168 170 168 169 162 164 162 152 146 153 159 147 157 158 144 159 138 161 183 133 120 121 114 113
228 237 222 175 215 206 199 220 224 239 250 324 208 220 222 217 210 229 161 221 116 255 260 162 198 107 133 185 195 157 146 110 114 123 119 105 89 54 146 115 93 110 115 118 100 81 18 95 125 135 134 135 147 164 153 147 160 172 172 171 161 155 155 164 167 160 162 157 153 154 155 154 152 158 162 157 156 142 166 169 147 126 120 112 117 135
309 274 266 197 192 220 207 201 241 216 226 199 233 228 241 218 196 154 234 221 236 236 223 153 160 3 228 194 160 157 178 159 107 77 77 85 90 76 68 87 101 115 120 121 122 135 193 203 142 116 101 143 150 160 162 161 169 174 168 160 146 150 152 157 159 154 156 158 157 155 159 154 155 169 157 148 148 148 156 145 126 120 117 129 139 145
236 254 268 297 261 196 203 222 216 231 215 233 244 25 316 303 227 185 261 171 224 248 248 221 204 180 214 188 163 169 178 136 79 74 73 86 85 67 82 105 115 119 126 136 143 160 176 164 147 143 143 142 106 122 127 124 128 142 151 150 149 149 152 151 152 145 149 161 150 151 162 172 159 163 151 142 144 148 152 161 148 134 137 135 144 147
134 257 254 248 270 174 197 201 241 210 228 250 256 185 194 144 257 292 270 267 214 217 249 224 221 77 359 12 198 140 98 79 76 89 85 64 53 63 83 119 123 123 132 146 160 154 149 145 145 144 150 145 152 146 114 159 175 161 158 154 155 159 157 151 142 146 157 170 157 162 175 170 165 155 153 148 149 154 156 165 136 138 135 145 159 136
218 118 273 309 296 285 219 192 216 229 232 206 225 257 234 238 155 202 194 259 243 249 234 262 242 72 9 351 83 99 111 120 114 77 93 58 43 54 56 32 85 143 151 152 146 140 141 143 136 133 126 126 124 125 123 358 185 158 163 163 159 155 155 155 153 153 164 176 166 163 161 173 159 156 149 152 150 152 159 147 144 141 143 149 170 144
201 151 235 263 261 262 268 198 221 234 244 240 220 223 236 215 205 213 232 181 256 249 246 251 110 85 42 4 73 106 116 137 138 134 147 136 171 164 140 158 207 161 154 135 133 136 141 141 139 140 131 122 120 130 150 173 152 159 174 153 148 150 158 155 159 165 169 180 162 160 167 173 161 181 148 149 154 152 140 127 132 145 136 176 158 161
336 163 189 226 234 250 275 327 306 275 237 246 241 222 219 245 222 180 253 279 279 248 318 220 165 114 155 103 100 104 113 115 128 145 145 148 162 176 157 153 172 168 134 132 129 131 130 138 138 138 133 130 131 142 150 151 158 162 167 159 150 155 164 163 166 170 172 170 168 163 172 174 172 178 151 150 158 154 138 139 143 155 161 171 164 185
120 230 194 213 250 265 262 297 299 280 303 268 240 271 268 233 229 216 202 182 240 141 229 207 239 107 113 139 130 114 113 119 116 114 125 132 138 146 137 135 179 160 150 134 142 130 132 139 139 139 134 127 138 138 140 137 143 144 143 162 169 166 172 172 171 166 172 163 171 165 167 164 180 169 155 153 160 150 146 154 155 165 163 195 150 203
245 216 267 255 183 261 223 343 318 329 323 301 290 253 252 270 218 254 327 58 270 253 272 266 231 158 133 109 101 104 153 128 126 121 125 124 111 113 126 133 144 111 111 117 117 120 125 126 125 127 124 126 133 131 136 151 146 138 136 143 172 126 70 45 13 328 183 164 162 162 159 163 164 161 167 146 157 138 147 156 162 160 176 197 169 186
217 217 187 231 245 236 234 222 210 294 337 326 318 304 263 263 254 111 335 7 269 247 264 260 97 27 126 129 119 123 80 66 69 101 60 40 109 117 112 108 127 114 113 114 112 110 109 93 81 96 110 112 115 123 127 141 169 149 136 99 118 131 148 164 162 123 320 308 167 151 157 160 151 141 128 101 90 66 114 135 192 161 198 194 179 194
213 111 216 223 251 273 254 7 110 14 8 341 323 333 339 302 275 288 150 166 232 10 260 354 158 152 152 136 125 116 85 83 47 34 85 68 18 36 112 110 95 92 105 109 111 110 103 107 107 35 38 98 111 110 115 134 115 132 134 157 167 147 151 155 149 165 191 199 274 241 154 150 124 93 65 57 85 100 359 287 218 179 200 195 175 168
180 199 220 230 230 206 156 182 281 314 338 343 352 346 341 5 338 268 256 259 180 196 176 266 154 122 89 86 103 100 102 90 86 31 49 38 113 230 101 104 103 106 101 100 98 102 108 115 124 136 136 95 16 149 169 172 135 147 83 131 135 125 98 113 154 188 177 189 168 198 88 71 80 119 135 139 124 148 155 218 245 183 202 192 187 167
210 224 187 207 232 237 212 199 195 260 285 338 336 352 357 3 17 354 290 267 296 284 202 99 108 107 108 101 103 120 132 150 130 125 137 206 184 147 111 101 97 94 90 82 82 82 87 87 81 80 77 101 109 67 59 40 51 85 130 65 59 86 149 170 173 189 175 161 144 133 137 142 144 145 136 137 143 164 177 227 271 28 353 248 137 39
248 224 199 200 233 224 219 211 223 242 261 268 288 314 11 24 35 21 6 11 342 137 118 123 107 99 103 91 84 83 86 69 61 76 60 6 9 97 95 95 92 85 80 76 70 65 60 72 94 102 89 68 72 64 67 79 109 124 126 152 169 138 112 116 224 152 132 92 72 75 102 111 112 132 141 158 158 164 178 201 191 58 2 353 40 72
295 22 357 231 225 218 207 201 216 239 246 237 225 283 24 12 21 35 18 358 8 75 121 117 106 98 95 92 75 52 61 79 69 56 56 57 40 16 75 81 79 84 85 79 74 71 69 64 56 56 79 106 107 116 114 95 92 71 72 46 67 89 106 114 125 69 59 92 96 88 100 141 160 165 162 150 140 149 168 176 147 149 155 48 42 30
294 284 151 239 237 211 199 171 190 229 210 254 242 240 252 40 19 45 33 358 303 149 121 113 111 114 97 73 65 50 57 69 72 65 56 56 49 46 48 49 46 43 42 40 38 34 31 29 28 23 16 22 42 75 99 96 88 67 55 79 97 85 75 37 52 72 65 82 121 138 142 146 147 148 149 164 162 170 171 165 159 145 174 156 136 126
318 299 212 205 230 225 182 173 189 189 158 249 237 248 244 179 209 70 52 29 75 153 135 124 115 114 99 84 73 59 59 58 66 72 72 63 62 63 62 60 60 58 51 46 42 39 37 34 32 30 24 20 13 15 25 26 34 34 40 50 32 113 136 113 73 69 86 74 73 62 67 72 92 126 150 138 150 167 168 161 165 157 162 152 159 150
312 35 349 319 256 119 6 146 170 207 227 255 338 328 246 207 140 99 74 50 24 49 299 102 106 109 101 85 83 75 63 59 64 66 69 79 72 60 58 60 61 61 57 49 44 41 33 28 26 24 23 20 19 18 19 20 0 1 50 23 35 41 37 50 72 68 100 115 106 139 150 143 147 140 121 114 125 158 162 126 129 117 125 130 128 179
164 234 202 245 288 58 296 135 207 219 196 355 334 14 55 90 95 95 77 43 86 95 88 100 116 110 92 96 99 95 87 74 60 57 45 53 73 75 71 61 57 58 58 51 45 41 37 33 26 21 21 18 13 14 15 7 12 2 16 21 23 35 61 79 54 48 22 23 32 35 33 62 39 33 42 104 132 149 166 142 141 152 146 155 169 187
158 241 265 255 252 132 171 165 216 108 77 56 31 46 74 92 101 91 71 61 29 51 124 117 101 96 97 98 97 100 102 102 83 61 57 50 59 70 68 62 58 57 57 51 51 42 40 40 33 24 19 13 16 15 12 10 4 6 9 15 4 359 46 38 53 36 17 23 14 15 12 15 37 65 80 84 51 2 282 146 163 165 173 179 215 222
100 102 143 199 351 261 258 206 230 114 146 108 170 58 11 55 99 324 156 123 105 82 84 99 102 103 105 111 115 120 118 95 74 70 71 76 72 67 76 76 70 65 64 64 66 61 48 44 42 29 23 17 25 14 9 12 4 6 4 9 8 356 19 34 19 14 21 13 7 358 5 4 8 20 354 9 351 329 18 335 121 175 165 179 183 192
130 153 120 148 167 279 340 287 183 218 235 86 33 39 53 67 357 335 115 116 118 108 104 108 110 114 119 127 131 128 113 82 73 81 99 101 102 100 90 86 77 71 71 69 75 83 85 94 91 59 69 41 19 6 349 1 2 8 5 1 7 360 11 24 8 355 7 359 1 352 358 2 360 4 356 354 349 358 354 356 356 338 175 205 194 188
191 122 151 227 136 134 166 245 284 291 57 335 33 6 2 348 345 355 188 127 130 123 122 121 123 130 137 144 148 155 124 103 110 120 130 118 114 116 111 112 108 110 104 104 97 86 77 99 149 165 165 139 84 252 291 332 11 355 354 354 347 352 350 32 4 348 347 349 348 346 340 345 350 358 353 341 354 349 346 343 336 316 305 276 235 239
244 243 233 234 236 190 127 208 235 94 115 20 12 22 4 350 320 305 209 145 116 136 131 130 138 143 154 157 167 163 122 121 129 129 133 134 145 140 137 146 150 149 129 104 78 99 138 139 99 77 42 42 33 41 14 8 8 5 351 355 352 331 349 9 1 332 338 342 337 329 324 328 344 355 350 333 334 337 330 329 322 316 307 295 281 250
14 340 294 285 265 225 247 314 84 110 68 359 1 347 354 335 342 184 125 103 203 125 123 100 91 120 151 158 154 82 105 112 118 122 112 101 95 88 82 73 74 71 81 84 69 31 51 78 69 63 47 45 21 27 21 31 19 354 360 351 335 0 5 354 346 347 345 336 324 316 318 332 337 335 332 324 323 321 318 316 312 314 313 302 291 298
330 350 305 282 327 292 137 116 62 63 323 285 327 35 337 286 129 96 111 292 90 84 91 92 90 80 77 77 76 90 96 97 107 117 118 108 94 92 91 85 81 79 81 99 91 52 29 75 81 60 51 50 33 29 22 12 13 7 8 359 3 3 352 354 345 331 328 322 323 327 328 325 327 326 319 306 294 290 283 287 293 295 300 301 289 265
21 347 8 29 349 320 282 152 133 100 24 309 310 38 10 49 106 180 113 70 71 79 81 88 88 89 87 82 72 73 100 111 106 96 90 89 88 77 73 72 70 69 61 56 62 45 10 47 57 52 46 46 40 30 23 15 15 19 11 355 351 358 346 338 328 326 330 332 328 325 318 311 307 304 301 302 301 296 290 285 282 279 286 289 289 283
12 304 17 63 14 323 34 57 62 65 37 17 32 66 51 50 45 43 64 64 47 64 78 69 69 90 100 97 100 98 93 93 96 98 96 94 91 89 83 73 67 62 52 51 49 28 6 35 32 33 39 34 27 22 20 16 18 14 353 342 348 331 321 319 326 324 320 319 319 317 318 317 314 308 308 299 296 288 280 273 266 267 265 265 266 271
15 52 21 58 31 31 65 96 111 95 72 61 74 96 83 52 50 53 55 65 79 71 65 66 55 41 53 88 97 102 105 107 111 116 117 113 101 99 98 87 72 69 62 57 43 23 12 36 27 36 30 26 14 22 22 12 357 345 333 348 340 336 333 331 328 325 324 318 317 317 311 313 313 315 315 313 307 301 298 294 287 274 265 264 264 261
73 65 104 94 83 81 80 91 94 85 84 82 66 62 69 79 80 79 78 73 65 77 69 64 61 77 98 103 94 82 89 98 103 107 111 112 115 112 106 105 101 92 86 79 61 22 18 41 52 38 32 21 29 21 17 8 3 357 359 349 343 331 324 324 329 329 322 319 319 321 320 318 318 310 307 310 314 310 302 295 296 296 294 279 267 263
46 355 35 72 134 199 94 120 98 93 89 68 74 76 71 63 70 75 79 81 84 78 78 76 80 66 61 91 99 103 104 107 108 108 107 112 108 110 109 107 107 108 99 86 68 24 68 68 50 41 26 30 29 24 12 5 358 346 340 340 335 333 329 331 326 323 325 326 324 322 317 309 303 318 317 306 297 299 303 305 295 285 276 276 281 286
76 321 344 88 71 87 121 124 115 112 114 113 102 94 77 78 80 77 82 84 82 82 86 91 91 80 78 87 96 103 94 80 88 101 113 106 103 96 93 87 98 88 90 90 84 347 66 54 52 45 35 33 36 18 10 357 353 347 347 341 337 333 332 324 330 325 317 315 316 311 309 311 318 310 298 302 306 298 285 280 292 297 294 289 284 275
284 286 61 75 97 98 106 121 134 137 132 117 103 90 91 96 96 101 98 94 86 86 83 73 65 85 90 91 101 111 103 90 67 56 84 97 97 95 88 110 129 119 87 77 83 78 68 56 50 37 28 44 37 2 355 356 2 358 353 347 345 339 329 324 323 319 312 312 311 311 318 316 313 317 323 321 314 315 314 315 306 291 288 296 346 42
12 32 352 133 118 150 145 140 138 138 139 123 118 120 118 114 108 106 104 102 109 108 109 114 118 114 91 72 67 75 91 91 79 51 62 79 84 84 103 96 76 99 88 83 88 80 75 72 55 44 32 33 14 352 5 7 4 358 359 355 346 341 331 326 320 312 311 308 308 309 318 317 318 317 315 314 313 313 312 310 310 312 309 296 292 283
43 32 25 23 20 89 123 135 99 70 121 125 129 135 140 152 140 107 102 121 124 116 121 142 145 132 118 109 87 85 76 65 70 64 57 61 61 78 64 33 17 44 77 96 79 66 62 56 40 41 34 22 356 1 8 2 354 1 358 357 348 341 333 326 322 315 310 314 314 332 338 321 311 314 313 316 318 314 309 310 316 319 313 305 297 298